Theta_e
328 330 333 336 335 329 332 339 341 341 344 345 343 342 341 340 340 343 343 344 348 348 346 345 345 344 342 341 339 336 334 333 337 333 331 334 335 335 334 332 334 337 341
324 325 326 328 329 332 338 343 346 346 345 346 345 343 343 343 341 342 343 344 347 348 348 345 342 344 344 341 338 338 336 335 336 330 327 324 326 331 334 333 333 332 332
322 324 326 328 331 331 332 332 335 338 342 346 343 346 345 345 343 343 342 344 347 349 348 347 344 343 340 340 338 336 334 332 332 331 328 321 319 323 329 333 334 331 327
323 325 328 330 335 335 337 337 336 334 335 337 339 340 340 341 343 341 345 347 348 349 350 346 345 332 329 327 334 340 337 333 331 332 335 329 326 321 319 326 328 328 328
324 326 329 330 330 328 327 328 330 331 334 335 331 333 333 337 339 339 338 339 340 340 340 345 333 332 331 330 329 330 336 337 334 332 329 328 327 324 320 319 322 328 330
317 323 324 326 324 324 324 325 325 326 329 330 331 332 333 331 331 333 334 334 336 335 335 337 333 335 333 331 327 329 330 337 338 335 332 328 325 323 321 315 317 322 330
312 313 318 319 320 320 321 322 321 321 324 324 326 327 327 327 327 329 329 329 331 332 330 330 330 331 329 326 327 327 325 335 337 336 335 331 328 324 322 316 315 321 329
312 314 314 316 316 317 320 322 320 319 318 321 321 322 323 325 325 326 327 327 328 331 330 328 327 331 331 329 326 323 324 334 339 337 336 334 332 329 326 320 316 315 321
311 313 313 314 312 310 311 312 314 312 312 313 316 317 319 320 321 321 323 323 324 329 331 331 326 326 328 328 329 326 324 333 337 338 336 333 334 332 329 321 322 320 316
311 312 313 313 311 311 310 310 312 310 310 311 312 314 314 316 316 317 318 319 321 323 325 329 329 326 325 324 323 320 324 329 335 338 336 335 333 330 330 322 317 315 319
310 311 312 313 314 310 310 308 307 308 308 309 309 312 312 314 313 312 313 316 317 321 322 324 326 326 327 326 321 319 322 325 329 332 335 335 334 330 329 326 319 316 322
310 311 311 311 311 309 308 307 307 307 307 307 307 307 310 310 308 309 311 313 314 317 320 321 322 325 326 328 325 324 324 325 327 329 330 331 336 331 328 326 321 319 323
309 311 310 308 307 307 308 308 308 308 308 309 308 308 307 307 306 307 310 310 312 313 315 317 320 321 321 325 325 324 325 325 325 328 328 329 330 327 328 327 323 321 326
308 309 309 308 307 307 307 308 308 308 308 310 308 306 305 306 306 307 308 308 310 311 311 314 317 320 319 322 323 325 326 326 326 328 327 327 327 327 326 327 325 325 325
307 307 306 308 305 305 306 307 308 308 308 307 306 305 306 305 306 307 307 307 307 308 311 314 315 314 316 321 319 319 321 323 326 327 327 326 326 326 325 326 323 324 325
307 308 306 303 303 304 305 305 305 306 306 305 305 304 304 304 304 304 305 305 305 305 306 308 311 311 316 309 306 311 314 317 322 322 325 326 324 323 318 320 319 322 326
304 302 302 301 301 301 302 301 302 303 302 303 304 303 303 302 302 302 303 301 302 302 302 304 306 306 307 306 303 304 309 310 312 315 318 323 327 323 326 317 317 317 316
300 300 300 300 299 299 300 300 300 300 300 299 300 300 300 299 299 298 298 297 298 299 300 301 302 306 309 305 303 300 304 307 309 313 315 317 321 325 324 324 322 323 323
300 300 300 299 297 297 298 297 297 297 298 298 298 299 298 297 297 295 294 294 295 295 296 299 300 300 304 303 302 300 303 305 306 309 311 314 318 314 308 323 323 321 323
298 298 298 297 295 295 296 296 296 296 296 297 297 297 296 296 295 295 293 293 293 294 296 296 296 299 299 300 300 302 305 303 303 304 308 308 309 307 304 316 321 319 321
297 296 295 294 294 295 295 293 293 293 295 297 297 297 297 296 296 296 296 295 294 293 293 294 294 295 296 298 299 299 302 303 303 304 305 309 303 301 300 303 322 320 321
295 295 293 293 294 294 293 292 291 294 297 297 297 296 296 296 296 295 294 293 293 292 291 290 290 293 295 298 298 297 297 300 300 301 303 307 303 300 299 300 304 304 307
293 293 291 291 291 293 292 291 293 296 297 296 295 294 294 293 294 293 292 292 293 292 292 292 293 293 295 295 297 296 296 298 301 301 301 299 298 297 299 299 301 301 313
291 291 290 290 290 293 296 296 296 297 294 292 291 292 291 291 292 292 292 291 290 290 291 291 291 293 295 295 296 300 298 298 295 296 296 299 301 301 305 306 303 307 311
291 291 290 290 292 295 295 295 295 294 292 291 291 290 291 291 291 291 291 290 291 291 290 290 291 290 290 293 294 295 296 296 295 295 294 297 305 306 307 309 310 310 311
290 289 289 292 293 295 294 294 294 293 291 290 290 290 290 290 290 289 289 292 291 291 291 291 290 291 291 292 292 292 292 292 292 294 295 295 297 305 306 306 307 310 309
Wind_Speed
4 10 12 13 10 1 3 7 11 13 9 3 4 3 5 3 3 4 6 7 6 8 9 7 5 5 5 5 6 5 5 3 1 3 3 2 3 5 4 2 4 4 4
8 11 15 10 7 5 6 6 11 11 9 6 3 3 3 3 3 3 5 6 6 7 7 8 6 6 4 5 5 4 2 2 3 3 2 3 5 3 4 3 3 4 3
13 9 10 6 7 6 8 7 6 3 2 1 2 2 3 2 1 1 2 4 6 7 10 10 7 7 2 3 3 1 2 2 2 1 4 1 4 3 3 1 3 1 2
6 7 8 8 12 9 10 11 7 6 4 3 4 2 1 4 2 2 4 7 10 8 5 6 0 12 11 13 13 8 2 2 4 1 2 0 2 2 5 3 2 3 3
8 10 10 11 10 12 11 11 12 12 9 6 4 3 3 4 8 6 6 6 8 10 11 4 12 11 5 8 11 9 7 3 4 4 3 1 0 2 1 4 3 4 4
16 9 9 11 9 8 10 12 14 10 11 11 9 10 12 8 8 7 7 5 5 4 8 7 9 4 5 13 11 12 13 4 5 5 5 5 4 3 4 2 3 2 3
18 19 14 8 7 7 8 10 11 10 9 9 9 8 8 8 8 6 4 6 6 4 5 2 4 4 9 15 16 17 13 6 6 6 5 4 5 5 3 2 3 3 2
16 18 21 17 8 11 11 10 9 10 10 9 10 9 9 6 6 6 5 5 3 3 4 4 3 5 9 10 11 10 6 3 4 6 5 4 5 5 5 5 5 2 3
15 18 27 26 15 12 11 9 7 8 8 8 8 8 7 8 7 7 6 4 5 5 5 4 4 4 5 7 8 10 1 2 3 3 6 4 4 4 5 5 5 6 4
4 9 12 19 16 13 8 8 7 7 7 8 7 6 6 7 6 6 6 5 5 6 6 7 6 6 6 4 4 3 2 3 4 3 4 5 3 5 3 3 4 3 5
6 6 6 8 7 1 8 6 7 6 8 7 6 7 6 6 6 5 5 5 4 5 5 5 6 6 6 6 5 6 4 5 3 4 4 6 5 4 4 3 2 2 4
3 3 2 5 9 5 7 7 4 6 5 6 5 6 6 6 7 6 5 5 4 4 5 5 5 6 7 6 5 7 6 8 6 6 5 4 1 4 1 2 5 4 5
5 3 4 5 6 6 10 4 4 5 5 4 2 5 6 6 6 6 6 6 3 4 4 5 4 5 7 6 5 5 6 8 9 8 5 0 4 2 2 1 5 3 2
6 5 5 7 10 3 4 7 3 4 7 6 7 8 8 7 7 6 7 7 7 7 6 4 4 4 6 7 6 6 5 9 8 4 4 4 3 5 3 3 5 5 5
8 8 8 7 8 3 3 5 5 5 4 5 7 7 7 6 6 7 6 6 6 7 8 6 1 1 4 5 6 6 6 7 6 2 5 6 6 9 10 7 4 6 6
7 7 7 4 2 7 7 7 7 8 6 7 6 5 6 6 7 6 6 6 6 6 6 8 7 5 2 5 7 6 5 7 6 5 6 9 11 14 12 13 10 9 12
6 5 6 7 6 6 6 6 6 6 7 5 5 7 8 8 7 6 6 6 6 6 6 6 7 7 8 10 7 6 4 5 6 6 6 6 6 12 16 12 13 14 13
8 6 5 6 5 4 6 5 5 4 5 5 5 5 7 8 8 7 5 5 4 4 5 6 7 6 6 13 13 5 5 5 6 6 7 8 10 9 13 15 10 12 12
6 5 6 7 6 5 3 3 4 4 4 5 5 6 7 9 8 7 5 6 4 2 4 6 6 6 8 12 13 7 6 6 7 7 7 7 10 11 13 12 15 16 11
5 7 6 5 6 5 6 7 7 6 5 5 6 5 6 9 11 11 6 4 4 5 5 5 6 8 8 12 15 11 6 9 8 7 8 9 10 13 13 12 14 12 12
7 6 7 6 5 5 5 4 4 4 6 5 7 9 12 11 12 13 12 10 8 7 6 6 6 7 8 10 16 17 8 8 9 8 5 6 10 13 14 14 12 16 13
8 7 6 4 3 3 4 2 4 6 8 10 10 11 11 10 10 13 12 10 10 7 7 6 5 6 7 10 10 10 10 6 5 8 5 7 15 13 13 9 13 11 7
6 4 5 2 2 1 1 5 6 7 7 7 9 10 11 11 11 12 12 10 9 8 8 8 7 5 6 5 10 7 6 3 2 4 9 14 17 16 12 11 13 11 8
5 3 5 5 5 5 5 6 7 6 8 11 11 11 11 12 11 9 9 9 9 8 8 8 8 7 6 5 4 4 3 1 5 8 10 12 11 11 10 5 5 5 6
5 5 6 6 6 6 6 7 6 9 10 10 10 11 9 10 11 10 9 9 10 10 9 9 8 8 9 8 8 8 6 7 7 7 7 7 7 6 8 7 5 4 5
4 5 5 5 5 5 6 6 8 9 10 10 8 8 9 8 9 10 10 12 16 18 17 17 14 10 16 15 16 18 19 14 13 5 7 8 7 7 8 6 6 6 7
Wind_Direction
139 129 143 156 178 147 156 203 188 203 180 168 171 195 210 200 229 224 229 222 204 210 212 219 205 202 204 201 194 202 193 239 129 84 329 306 258 263 239 218 260 243 257
155 146 146 155 166 177 190 184 195 191 186 192 185 172 160 208 214 216 236 234 216 209 211 211 212 200 198 214 211 170 176 200 165 161 121 337 327 308 258 179 241 280 287
164 154 138 141 122 110 101 81 55 53 63 194 100 31 31 336 318 249 259 278 253 220 212 206 192 200 196 292 261 214 192 217 356 240 148 17 249 321 318 307 195 156 272
119 95 105 98 100 88 77 74 75 54 17 17 49 50 208 229 272 358 33 18 11 354 293 256 249 62 64 33 355 337 299 121 241 299 242 171 170 158 321 338 6 88 209
71 100 92 91 78 77 74 67 61 50 39 50 49 73 69 19 39 44 41 32 25 25 15 48 97 93 50 27 343 327 329 244 185 179 175 184 59 99 167 280 313 56 21
14 36 99 98 83 74 75 76 72 51 46 51 42 49 53 47 51 39 50 24 26 14 34 80 107 132 151 159 238 247 242 231 204 178 171 171 172 216 171 201 245 153 69
23 31 349 19 64 70 71 73 71 59 51 45 42 46 60 61 62 53 38 24 32 20 353 19 194 183 186 191 210 226 235 190 195 194 189 177 190 160 215 200 176 140 118
13 27 23 308 64 52 46 46 56 63 52 52 42 35 35 54 61 55 51 36 19 4 331 321 298 252 204 222 226 221 227 234 266 201 190 194 211 168 179 200 152 94 121
4 5 28 300 47 46 43 47 39 53 54 53 50 40 35 37 40 37 36 20 6 359 357 348 317 292 235 240 241 249 268 298 307 271 234 217 242 207 180 210 186 159 140
47 14 19 335 12 6 1 44 51 51 48 43 42 38 39 40 37 32 33 27 358 359 6 352 342 325 297 272 265 288 316 316 301 272 232 233 223 239 217 221 238 128 135
114 77 312 351 317 263 339 13 34 45 48 42 34 30 12 21 41 34 7 9 359 347 357 360 346 347 318 290 244 234 241 258 259 282 259 251 206 242 197 202 198 172 130
127 84 188 247 233 142 39 359 16 35 38 41 18 23 8 7 3 8 352 346 7 334 334 340 352 343 340 330 270 259 253 248 243 237 260 283 63 193 287 205 222 245 135
157 227 286 252 251 155 142 128 14 1 17 15 17 28 354 340 327 322 316 311 339 313 329 327 320 336 336 337 323 250 253 252 247 250 214 316 314 13 138 248 205 190 172
171 218 266 298 312 247 161 108 95 28 348 346 358 4 347 330 330 347 342 337 330 326 328 298 316 328 335 332 341 348 310 263 243 223 252 247 247 285 276 210 226 187 173
193 209 230 265 274 273 10 61 56 75 57 21 8 359 344 354 24 29 17 28 29 3 323 302 210 344 330 313 320 330 334 329 322 265 254 246 223 244 242 241 201 165 189
208 243 231 171 96 51 53 54 37 31 35 29 25 10 1 358 16 9 1 8 4 9 6 351 324 311 262 299 315 331 339 325 304 291 293 266 242 249 236 208 178 190 175
190 101 95 87 85 64 54 46 33 27 21 20 23 9 350 355 357 358 10 2 349 340 340 331 331 318 302 289 269 284 302 311 300 284 276 269 261 254 256 208 196 202 218
122 120 112 96 79 65 53 46 34 20 354 5 353 353 342 337 343 345 331 323 307 321 330 312 305 300 292 308 294 273 255 258 270 286 283 276 272 260 244 243 221 217 205
146 126 113 124 121 102 102 79 37 9 359 351 339 343 326 322 312 314 317 293 280 294 282 274 301 312 303 299 295 294 296 266 267 273 278 279 282 246 226 220 216 221 215
91 104 98 100 84 42 42 36 11 4 346 327 311 315 318 316 315 312 303 270 272 272 285 272 274 270 277 280 284 276 267 283 280 259 264 267 267 265 229 221 224 226 215
92 81 65 75 63 37 53 43 355 323 285 293 315 317 316 314 311 313 312 316 301 293 265 263 259 258 256 262 263 268 263 264 273 271 254 263 258 258 254 221 239 223 224
69 67 70 55 13 48 60 0 338 302 321 321 317 315 311 311 315 305 302 296 288 282 280 268 255 252 258 263 272 240 229 251 239 264 268 257 260 250 250 224 235 231 202
109 105 109 80 1 344 21 337 316 328 324 320 316 316 316 312 306 303 306 304 304 300 299 293 286 267 252 251 276 221 202 253 265 301 297 281 284 290 264 225 232 232 232
94 87 58 29 3 354 0 337 336 352 340 326 321 318 314 308 306 301 299 295 296 296 293 291 292 290 285 278 280 230 219 274 319 315 313 304 267 260 249 237 220 200 217
68 53 38 14 3 355 347 348 5 341 328 319 311 305 302 300 299 294 293 290 285 285 288 286 285 282 273 270 259 260 269 291 284 303 292 302 294 238 230 227 211 197 213
66 47 24 4 334 338 344 350 341 327 316 311 309 305 304 299 296 295 292 272 271 278 278 275 271 276 271 269 259 260 265 255 262 265 263 278 282 261 232 213 210 188 209